Location: Hicks
(37.9226°N, 89.9954°W)
Time: 08:33:17
(UTC+00:00)

GEOS 3 Rocket - Pass Details

Date: 14 December 2025
Orbit: 769 x 845 km, 115.0° (Epoch: 24 January)

Event Time Altitude Azimuth Distance (km) Brightness Sun altitude
Exits shadow 23:37:50 - 28° (NNE) 2,875 6.0 -10.9°
Reaches altitude 10° 23:38:52 10° 26° (NNE) 2,468 5.7 -11.1°
Maximum altitude 23:44:08 58° 309° (NW) 976 4.2 -12.0°
Drops below altitude 10° 23:49:23 10° 231° (SW) 2,452 7.3 -13.0°
Sets 23:51:43 0° 227° (SW) 3,379 8.2 -13.4°
